EN

Hourly Weather Alihe

Today, 16 January, Saturday

Time Temperature Precipitation Wind Pressure Humidity
00:00 -27°C° 0 mm 1 mps 720 mmHg 88%
01:00 -27°C° 0 mm 1 mps 719 mmHg 88%
02:00 -28°C° 0 mm 1 mps 719 mmHg 88%
03:00 -28°C° 0 mm 1 mps 719 mmHg 88%
04:00 -28°C° 0 mm 1 mps 718 mmHg 89%
05:00 -28°C° 0 mm 1 mps 718 mmHg 89%
06:00 -28°C° 0 mm 1 mps 718 mmHg 88%
07:00 -28°C° 0 mm 1 mps 718 mmHg 87%
08:00 -27°C° 0 mm 1 mps 718 mmHg 85%
09:00 -24°C° 0 mm 1 mps 718 mmHg 81%
10:00 -23°C° 0 mm 1 mps 717 mmHg 78%
11:00 -22°C° 0 mm 1 mps 717 mmHg 74%
12:00 -21°C° 0 mm 1 mps 717 mmHg 72%
13:00 -23°C° 0 mm 2 mps 716 mmHg 71%
14:00 -21°C° 0 mm 2 mps 716 mmHg 69%
15:00 -23°C° 0 mm 2 mps 716 mmHg 74%
16:00 -24°C° 0 mm 2 mps 716 mmHg 80%
17:00 -23°C° 0 mm 1 mps 716 mmHg 86%
18:00 -23°C° 0 mm 1 mps 715 mmHg 87%
19:00 -24°C° 0 mm 1 mps 715 mmHg 87%
20:00 -25°C° 0 mm 1 mps 715 mmHg 88%
21:00 -25°C° 0 mm 1 mps 715 mmHg 89%
22:00 -27°C° 0 mm 1 mps 714 mmHg 90%
23:00 -27°C° 0 mm 1 mps 714 mmHg 90%

Tomorrow, 17 January, Sunday

Time Temperature Precipitation Wind Pressure Humidity
00:00 -28°C° 0 mm 1 mps 714 mmHg 91%
01:00 -28°C° 0 mm 1 mps 714 mmHg 92%
02:00 -28°C° 0 mm 1 mps 713 mmHg 92%
03:00 -29°C° 0 mm 1 mps 713 mmHg 93%
04:00 -29°C° 0 mm 1 mps 713 mmHg 93%
05:00 -29°C° 0 mm 1 mps 713 mmHg 93%
06:00 -30°C° 0 mm 1 mps 713 mmHg 93%
07:00 -30°C° 0 mm 1 mps 713 mmHg 93%
08:00 -30°C° 0 mm 1 mps 712 mmHg 93%
09:00 -28°C° 0 mm 1 mps 713 mmHg 87%
10:00 -27°C° 0 mm 1 mps 713 mmHg 80%
11:00 -24°C° 0 mm 1 mps 713 mmHg 74%
12:00 -24°C° 0 mm 1 mps 713 mmHg 71%
13:00 -24°C° 0 mm 1 mps 713 mmHg 68%
14:00 -23°C° 0 mm 1 mps 712 mmHg 66%
15:00 -24°C° 0 mm 1 mps 713 mmHg 73%
16:00 -25°C° 0 mm 1 mps 713 mmHg 81%
17:00 -27°C° 0 mm 1 mps 714 mmHg 89%
18:00 -27°C° 0 mm 1 mps 714 mmHg 90%
19:00 -28°C° 0 mm 1 mps 715 mmHg 91%
20:00 -28°C° 0 mm 1 mps 715 mmHg 93%
21:00 -29°C° 0 mm 1 mps 715 mmHg 92%
22:00 -29°C° 0 mm 1 mps 715 mmHg 92%
23:00 -30°C° 0 mm 1 mps 716 mmHg 92%

Day after tomorrow, 18 January, Monday

Time Temperature Precipitation Wind Pressure Humidity
00:00 -30°C° 0 mm 1 mps 716 mmHg 92%
01:00 -30°C° 0 mm 1 mps 716 mmHg 91%
02:00 -31°C° 0 mm 1 mps 716 mmHg 91%
03:00 -31°C° 0 mm 1 mps 716 mmHg 91%
04:00 -31°C° 0 mm 1 mps 717 mmHg 91%
05:00 -31°C° 0 mm 1 mps 717 mmHg 90%
06:00 -31°C° 0 mm 1 mps 717 mmHg 90%
07:00 -32°C° 0 mm 1 mps 718 mmHg 90%
08:00 -32°C° 0 mm 1 mps 718 mmHg 89%
09:00 -32°C° 0 mm 2 mps 718 mmHg 82%
10:00 -31°C° 0 mm 2 mps 719 mmHg 74%
11:00 -29°C° 0 mm 2 mps 719 mmHg 66%
12:00 -28°C° 0 mm 2 mps 719 mmHg 65%
13:00 -28°C° 0 mm 2 mps 719 mmHg 65%
14:00 -27°C° 0 mm 2 mps 719 mmHg 64%
15:00 -28°C° 0 mm 2 mps 719 mmHg 70%
16:00 -29°C° 0 mm 2 mps 719 mmHg 76%
17:00 -28°C° 0 mm 1 mps 720 mmHg 82%
18:00 -29°C° 0 mm 1 mps 720 mmHg 83%
19:00 -29°C° 0 mm 1 mps 720 mmHg 84%
20:00 -29°C° 0 mm 1 mps 720 mmHg 85%
21:00 -30°C° 0 mm 1 mps 720 mmHg 85%
22:00 -30°C° 0 mm 1 mps 720 mmHg 85%
23:00 -30°C° 0 mm 1 mps 720 mmHg 84%

19 January, Tuesday

Time Temperature Precipitation Wind Pressure Humidity
00:00 -30°C° 0 mm 1 mps 720 mmHg 82%
01:00 -30°C° 0 mm 1 mps 720 mmHg 81%
02:00 -30°C° 0 mm 1 mps 719 mmHg 79%
03:00 -30°C° 0 mm 1 mps 719 mmHg 77%
04:00 -29°C° 0 mm 1 mps 719 mmHg 75%
05:00 -29°C° 0 mm 1 mps 719 mmHg 73%
06:00 -29°C° 0 mm 1 mps 718 mmHg 78%
07:00 -28°C° 0 mm 1 mps 718 mmHg 83%
08:00 -28°C° 0 mm 1 mps 718 mmHg 88%
09:00 -27°C° 0 mm 1 mps 718 mmHg 85%
10:00 -25°C° 0 mm 1 mps 718 mmHg 82%
11:00 -23°C° 0 mm 1 mps 718 mmHg 79%
12:00 -23°C° 0 mm 1 mps 717 mmHg 76%
13:00 -22°C° 0 mm 1 mps 717 mmHg 73%
14:00 -21°C° 0 mm 1 mps 717 mmHg 70%
15:00 -22°C° 0 mm 1 mps 717 mmHg 75%
16:00 -23°C° 0 mm 1 mps 717 mmHg 81%
17:00 -24°C° 0 mm 1 mps 717 mmHg 87%
18:00 -25°C° 0 mm 1 mps 717 mmHg 88%
19:00 -25°C° 0 mm 1 mps 717 mmHg 89%
20:00 -25°C° 0 mm 1 mps 717 mmHg 91%
21:00 -25°C° 0 mm 1 mps 716 mmHg 93%
22:00 -24°C° 0 mm 1 mps 716 mmHg 94%
23:00 -23°C° 0 mm 1 mps 716 mmHg 96%

20 January, Wednesday

Time Temperature Precipitation Wind Pressure Humidity
00:00 -23°C° 0.1 mm 1 mps 716 mmHg 96%
01:00 -23°C° 0.1 mm 1 mps 715 mmHg 96%
02:00 -23°C° 0.1 mm 1 mps 715 mmHg 97%
03:00 -24°C° 0 mm 1 mps 715 mmHg 96%
04:00 -25°C° 0 mm 1 mps 716 mmHg 95%
05:00 -25°C° 0 mm 1 mps 716 mmHg 94%
06:00 -25°C° 0 mm 1 mps 716 mmHg 93%
07:00 -25°C° 0 mm 1 mps 717 mmHg 92%
08:00 -27°C° 0 mm 1 mps 718 mmHg 92%
09:00 -23°C° 0 mm 1 mps 718 mmHg 85%
10:00 -21°C° 0 mm 1 mps 719 mmHg 78%
11:00 -19°C° 0 mm 1 mps 719 mmHg 71%
12:00 -18°C° 0 mm 1 mps 719 mmHg 69%
13:00 -18°C° 0 mm 1 mps 719 mmHg 66%
14:00 -17°C° 0 mm 1 mps 719 mmHg 64%
15:00 -18°C° 0 mm 1 mps 719 mmHg 71%
16:00 -20°C° 0 mm 1 mps 720 mmHg 77%
17:00 -21°C° 0 mm 0 mps 720 mmHg 84%
18:00 -21°C° 0 mm 0 mps 720 mmHg 86%
19:00 -21°C° 0 mm 0 mps 720 mmHg 87%
20:00 -21°C° 0 mm 0 mps 720 mmHg 89%
21:00 -22°C° 0 mm 0 mps 720 mmHg 90%
22:00 -22°C° 0 mm 0 mps 720 mmHg 91%
23:00 -23°C° 0 mm 0 mps 719 mmHg 93%

21 January, Thursday

Time Temperature Precipitation Wind Pressure Humidity
00:00 -23°C° 0 mm 0 mps 719 mmHg 93%
01:00 -22°C° 0 mm 0 mps 719 mmHg 94%
02:00 -22°C° 0 mm 0 mps 719 mmHg 95%
03:00 -23°C° 0 mm 0 mps 719 mmHg 95%
04:00 -24°C° 0 mm 0 mps 719 mmHg 96%
05:00 -24°C° 0 mm 0 mps 719 mmHg 96%
06:00 -24°C° 0 mm 0 mps 719 mmHg 96%
07:00 -24°C° 0 mm 0 mps 719 mmHg 96%
08:00 -24°C° 0 mm 0 mps 719 mmHg 96%
09:00 -22°C° 0 mm 0 mps 719 mmHg 90%
10:00 -20°C° 0 mm 0 mps 719 mmHg 84%
11:00 -18°C° 0 mm 0 mps 719 mmHg 77%
12:00 -17°C° 0 mm 0 mps 719 mmHg 76%
13:00 -16°C° 0 mm 0 mps 719 mmHg 74%
14:00 -15°C° 0 mm 0 mps 719 mmHg 72%
15:00 -17°C° 0 mm 0 mps 720 mmHg 79%
16:00 -19°C° 0 mm 0 mps 720 mmHg 85%
17:00 -21°C° 0 mm 0 mps 720 mmHg 92%
18:00 -21°C° 0 mm 0 mps 721 mmHg 93%
19:00 -22°C° 0 mm 0 mps 721 mmHg 93%
20:00 -22°C° 0 mm 0 mps 722 mmHg 94%
21:00 -23°C° 0 mm 0 mps 722 mmHg 95%
22:00 -23°C° 0 mm 0 mps 723 mmHg 96%
23:00 -23°C° 0 mm 0 mps 723 mmHg 96%
Show more